If you wish to contribute or participate in the discussions about articles you are invited to join SKYbrary as a registered user

 Actions

Angoulême-Brie-Champniers Airport

From SKYbrary Wiki

LFBU
Airport
ICAO: LFBU – IATA: ANG
Summary
Name Angoulême-Brie-Champniers Airport
Region Europe
Territory France FR.gif
Location , Poitou-Charentes
Serving Angouleme
Elevation 132.893 m <br />436 ft <br />436 ft132.893 m <br />
Type medium airport
Coordinates 45° 43' 45.29" N, 0° 13' 17.24" E
Runways
Designator Length Width Surface ROPS
10/28 1810 m5,938.32 ft <br /> 45 m147.638 ft <br /> ASP /


METAR
Observation LFBU 160130Z AUTO 03004KT CAVOK 07/06 Q1019 TEMPO 3000 MIFG
Station BRIE CHAMPNIERS
Date/Time 16 October 2021 01:30:00
Wind direction 30°
Wind speed 04 kts
Lowest cloud amount clouds and visibility OK
Temperature 7°C
Dew point 6°C
Humidity 93%
QNH 1019 hPa
Weather condition n/a